IRIDIUM 165

Last updated on Sun Jun 21 2026 00:03:14 GMT+0000 (Coordinated Universal Time)

1 43572U 18061D 26171.42826949 .00000033 00000+0 48641-5 0 9991 2 43572 86.3960 55.4492 0002077 87.4874 272.6560 14.34217444413851
UTC large
Height (km)
Speed (km/s)
/
Latitude / Longitude
Inclination (degrees)
Orbital Period (minutes)
Azimuth
Elevation
Range (km)
Doppler Factor

Next 0 passes for location: London (51.5072 / 0.1276)

No passes found over London.
IRIDIUM 165